Torna al catalogo

STARLINK-34132

AttivoComunicazioniVLEO
NORAD 64086·PAYLOAD·🇺🇸 United States

Lanciato May 21, 2025 da Cape Canaveral Space Force Station

Loading…

Prossimi Passaggi (prossime 24 ore)

TLE

AggiornatoSource: CelesTrak SupGP

Epoca: Sep 14, 2026, 21:38 UTC

1 64086C 25107Y   26257.90187500  .00020970  00000+0  75954-3 0  2578
2 64086  43.0002 213.1585 0001376 261.1724 179.6905 15.27568161    10

Traccia STARLINK-34132 in tempo reale con AllMySat

Download on the App Store